When you browse on this site, cookies collect data to enhance your experience and personalize the content and advertising you see.
Visit our Privacy Policy to learn more. By continuing to use the site, you agree to this use of cookies and data.
  • en France
  • Liste des pays
  • À 7 jours
  • Température de l'eau
  • Carte satellitaire
  • Carte météo
  • Widgets météo
  • user-avatar
    Se connecter

    Météo par heure à Sölden

    Ce jour, 18 Juin, Mardi

    Heure Température Précipitation Vent Pression Humidité
    00:00 +6°C° 0.3 mm 0 m/s 585 mmHg 90%
    01:00 +6°C° 0 mm 0 m/s 585 mmHg 89%
    02:00 +7°C° 0.1 mm 1 m/s 585 mmHg 90%
    03:00 +6°C° 0.1 mm 1 m/s 584 mmHg 90%
    04:00 +6°C° 0.1 mm 1 m/s 584 mmHg 91%
    05:00 +6°C° 0 mm 0 m/s 585 mmHg 88%
    06:00 +8°C° 0 mm 0 m/s 586 mmHg 86%
    07:00 +9°C° 0 mm 0 m/s 586 mmHg 84%
    08:00 +11°C° 0.3 mm 0 m/s 587 mmHg 77%
    09:00 +13°C° 0.3 mm 1 m/s 588 mmHg 70%
    10:00 +15°C° 0.3 mm 1 m/s 588 mmHg 64%
    11:00 +15°C° 1 mm 1 m/s 588 mmHg 64%
    12:00 +16°C° 1 mm 1 m/s 588 mmHg 64%
    13:00 +16°C° 1 mm 1 m/s 588 mmHg 65%
    14:00 +16°C° 1.2 mm 1 m/s 588 mmHg 66%
    15:00 +15°C° 1.2 mm 1 m/s 587 mmHg 68%
    16:00 +15°C° 1.2 mm 1 m/s 587 mmHg 69%
    17:00 +14°C° 1.3 mm 1 m/s 587 mmHg 75%
    18:00 +13°C° 1.3 mm 1 m/s 586 mmHg 80%
    19:00 +11°C° 1.3 mm 0 m/s 586 mmHg 86%
    20:00 +10°C° 0.6 mm 0 m/s 585 mmHg 87%
    21:00 +9°C° 0.6 mm 1 m/s 585 mmHg 88%
    22:00 +8°C° 0.6 mm 1 m/s 584 mmHg 90%
    23:00 +8°C° 0.2 mm 1 m/s 584 mmHg 90%

    Demain, 19 Juin, Mercredi

    Heure Température Précipitation Vent Pression Humidité
    00:00 +7°C° 0.2 mm 1 m/s 584 mmHg 90%
    01:00 +7°C° 0.2 mm 1 m/s 583 mmHg 91%
    02:00 +7°C° 0 mm 1 m/s 583 mmHg 91%
    03:00 +5°C° 0 mm 0 m/s 583 mmHg 91%
    04:00 +5°C° 0 mm 0 m/s 583 mmHg 91%
    05:00 +7°C° 0.1 mm 0 m/s 583 mmHg 89%
    06:00 +8°C° 0.1 mm 0 m/s 584 mmHg 86%
    07:00 +9°C° 0.1 mm 0 m/s 585 mmHg 84%
    08:00 +11°C° 0.6 mm 0 m/s 585 mmHg 80%
    09:00 +13°C° 0.6 mm 1 m/s 586 mmHg 75%
    10:00 +14°C° 0.6 mm 1 m/s 586 mmHg 71%
    11:00 +15°C° 1.2 mm 1 m/s 586 mmHg 69%
    12:00 +15°C° 1.2 mm 1 m/s 586 mmHg 68%
    13:00 +15°C° 1.2 mm 1 m/s 586 mmHg 67%
    14:00 +15°C° 1.3 mm 1 m/s 586 mmHg 67%
    15:00 +15°C° 1.3 mm 1 m/s 586 mmHg 68%
    16:00 +14°C° 1.3 mm 1 m/s 585 mmHg 69%
    17:00 +13°C° 1.1 mm 1 m/s 585 mmHg 75%
    18:00 +12°C° 1.1 mm 1 m/s 584 mmHg 80%
    19:00 +10°C° 1.1 mm 1 m/s 584 mmHg 86%
    20:00 +10°C° 0.3 mm 1 m/s 584 mmHg 85%
    21:00 +9°C° 0.3 mm 1 m/s 584 mmHg 85%
    22:00 +8°C° 0.3 mm 1 m/s 584 mmHg 85%
    23:00 +8°C° 0 mm 1 m/s 583 mmHg 83%

    Après-demain, 20 Juin, Jeudi

    Heure Température Précipitation Vent Pression Humidité
    00:00 +7°C° 0 mm 1 m/s 583 mmHg 82%
    01:00 +6°C° 0 mm 1 m/s 582 mmHg 81%
    02:00 +6°C° 0 mm 1 m/s 582 mmHg 81%
    03:00 +6°C° 0 mm 1 m/s 582 mmHg 80%
    04:00 +6°C° 0 mm 1 m/s 582 mmHg 80%
    05:00 +7°C° 0 mm 1 m/s 583 mmHg 76%
    06:00 +8°C° 0 mm 0 m/s 584 mmHg 72%
    07:00 +10°C° 0 mm 0 m/s 585 mmHg 69%
    08:00 +13°C° 0 mm 1 m/s 585 mmHg 63%
    09:00 +14°C° 0 mm 1 m/s 586 mmHg 57%
    10:00 +16°C° 0 mm 2 m/s 587 mmHg 51%
    11:00 +16°C° 0.3 mm 2 m/s 586 mmHg 52%
    12:00 +16°C° 0.3 mm 2 m/s 586 mmHg 54%
    13:00 +16°C° 0.3 mm 2 m/s 586 mmHg 56%
    14:00 +16°C° 0.7 mm 2 m/s 586 mmHg 59%
    15:00 +16°C° 0.7 mm 2 m/s 586 mmHg 62%
    16:00 +15°C° 0.7 mm 2 m/s 586 mmHg 65%
    17:00 +14°C° 0.5 mm 1 m/s 585 mmHg 72%
    18:00 +13°C° 0.5 mm 1 m/s 585 mmHg 78%
    19:00 +12°C° 0.5 mm 1 m/s 585 mmHg 84%
    20:00 +11°C° 0.3 mm 1 m/s 585 mmHg 86%
    21:00 +10°C° 0.3 mm 1 m/s 584 mmHg 89%
    22:00 +8°C° 0.3 mm 1 m/s 584 mmHg 91%
    23:00 +8°C° 0.2 mm 1 m/s 584 mmHg 91%

    21 Juin, Vendredi

    Heure Température Précipitation Vent Pression Humidité
    00:00 +8°C° 0.2 mm 1 m/s 584 mmHg 92%
    01:00 +8°C° 0.2 mm 1 m/s 584 mmHg 93%
    02:00 +7°C° 0.1 mm 1 m/s 583 mmHg 93%
    03:00 +7°C° 0.1 mm 1 m/s 583 mmHg 93%
    04:00 +7°C° 0.1 mm 1 m/s 583 mmHg 93%
    05:00 +7°C° 0.4 mm 0 m/s 584 mmHg 92%
    06:00 +8°C° 0.4 mm 0 m/s 584 mmHg 92%
    07:00 +8°C° 0.4 mm 0 m/s 585 mmHg 91%
    08:00 +9°C° 0.8 mm 0 m/s 585 mmHg 88%
    09:00 +11°C° 0.8 mm 1 m/s 586 mmHg 85%
    10:00 +12°C° 0.8 mm 1 m/s 586 mmHg 82%
    11:00 +12°C° 0.9 mm 1 m/s 586 mmHg 79%
    12:00 +13°C° 0.9 mm 1 m/s 586 mmHg 76%
    13:00 +14°C° 0.9 mm 1 m/s 587 mmHg 73%
    14:00 +14°C° 1.3 mm 1 m/s 586 mmHg 75%
    15:00 +14°C° 1.3 mm 1 m/s 586 mmHg 77%
    16:00 +13°C° 1.3 mm 1 m/s 586 mmHg 80%
    17:00 +13°C° 1.2 mm 1 m/s 585 mmHg 83%
    18:00 +12°C° 1.2 mm 1 m/s 585 mmHg 87%
    19:00 +10°C° 1.2 mm 0 m/s 585 mmHg 90%
    20:00 +10°C° 1.3 mm 1 m/s 585 mmHg 91%
    21:00 +9°C° 1.3 mm 1 m/s 585 mmHg 92%
    22:00 +7°C° 1.3 mm 2 m/s 585 mmHg 92%
    23:00 +8°C° 0.5 mm 1 m/s 585 mmHg 92%

    22 Juin, Samedi

    Heure Température Précipitation Vent Pression Humidité
    00:00 +8°C° 0.5 mm 1 m/s 585 mmHg 92%
    01:00 +8°C° 0.5 mm 1 m/s 585 mmHg 92%
    02:00 +7°C° 0 mm 1 m/s 584 mmHg 92%
    03:00 +7°C° 0 mm 1 m/s 584 mmHg 92%
    04:00 +6°C° 0 mm 0 m/s 584 mmHg 92%
    05:00 +7°C° 0 mm 0 m/s 584 mmHg 89%
    06:00 +8°C° 0 mm 0 m/s 585 mmHg 86%
    07:00 +9°C° 0 mm 0 m/s 585 mmHg 83%
    08:00 +11°C° 0.3 mm 1 m/s 586 mmHg 79%
    09:00 +12°C° 0.3 mm 1 m/s 586 mmHg 74%
    10:00 +14°C° 0.3 mm 1 m/s 587 mmHg 69%
    11:00 +14°C° 1.2 mm 2 m/s 587 mmHg 73%
    12:00 +14°C° 1.2 mm 2 m/s 587 mmHg 76%
    13:00 +14°C° 1.2 mm 2 m/s 586 mmHg 79%
    14:00 +13°C° 1.6 mm 2 m/s 586 mmHg 81%
    15:00 +13°C° 1.6 mm 2 m/s 586 mmHg 83%
    16:00 +13°C° 1.6 mm 1 m/s 586 mmHg 84%
    17:00 +12°C° 1 mm 1 m/s 585 mmHg 86%
    18:00 +12°C° 1 mm 1 m/s 585 mmHg 89%
    19:00 +10°C° 1 mm 0 m/s 585 mmHg 91%
    20:00 +10°C° 0.5 mm 1 m/s 585 mmHg 92%
    21:00 +8°C° 0.5 mm 1 m/s 585 mmHg 92%
    22:00 +7°C° 0.5 mm 1 m/s 584 mmHg 93%
    23:00 +6°C° 0.1 mm 1 m/s 584 mmHg 93%

    23 Juin, Dimanche

    Heure Température Précipitation Vent Pression Humidité
    00:00 +6°C° 0.1 mm 1 m/s 584 mmHg 92%
    01:00 +6°C° 0.1 mm 1 m/s 584 mmHg 92%
    02:00 +6°C° 0 mm 1 m/s 584 mmHg 92%
    03:00 +5°C° 0 mm 1 m/s 584 mmHg 92%
    04:00 +5°C° 0 mm 1 m/s 584 mmHg 91%
    05:00 +7°C° 0 mm 1 m/s 585 mmHg 88%
    06:00 +7°C° 0 mm 0 m/s 586 mmHg 85%
    07:00 +9°C° 0 mm 0 m/s 587 mmHg 82%
    08:00 +11°C° 0 mm 0 m/s 588 mmHg 74%
    09:00 +14°C° 0 mm 1 m/s 588 mmHg 65%
    10:00 +16°C° 0 mm 1 m/s 589 mmHg 56%
    11:00 +16°C° 0 mm 1 m/s 590 mmHg 53%
    12:00 +17°C° 0 mm 2 m/s 590 mmHg 51%
    13:00 +18°C° 0 mm 2 m/s 590 mmHg 48%
    14:00 +18°C° 0.1 mm 2 m/s 590 mmHg 50%
    15:00 +18°C° 0.1 mm 2 m/s 590 mmHg 52%
    16:00 +18°C° 0.1 mm 2 m/s 590 mmHg 54%
    17:00 +16°C° 0.2 mm 1 m/s 590 mmHg 64%
    18:00 +15°C° 0.2 mm 1 m/s 589 mmHg 73%
    19:00 +14°C° 0.2 mm 1 m/s 589 mmHg 83%
    20:00 +12°C° 0 mm 1 m/s 588 mmHg 86%
    21:00 +11°C° 0 mm 1 m/s 588 mmHg 89%
    22:00 +8°C° 0 mm 0 m/s 588 mmHg 92%
    23:00 +8°C° 0 mm 0 m/s 588 mmHg 93%
    Voir plus